| time (UTC) | temp F | wind direction | speed MPH | gust MPH | rain 1hr in | rain 24hr in | rain mn in | humidity % | barometer mb |
| 20260506002541 | 73 | 91 | 0.0 | 6.0 | 0.00 | 0.00 | 0.00 | 57 | 1008.6 |
| 20260506001603 | 73 | 304 | 0.0 | 7.0 | 0.00 | 0.00 | 0.00 | 56 | 1008.6 |
| 20260506000607 | 74 | 57 | 0.0 | 7.0 | 0.00 | 0.00 | 0.00 | 55 | 1008.6 |
| 20260505235629 | 74 | 108 | 0.0 | 2.0 | 0.00 | 0.00 | 0.00 | 55 | 1008.6 |
| 20260505234639 | 75 | 102 | 1.0 | 8.0 | 0.00 | 0.00 | 0.00 | 54 | 1008.6 |
| 20260505233614 | 75 | 359 | 1.0 | 8.0 | 0.00 | 0.00 | 0.00 | 54 | 1008.6 |
| 20260505232552 | 76 | 89 | 1.0 | 7.0 | 0.00 | 0.00 | 0.00 | 53 | 1008.6 |
| 20260505231602 | 76 | 102 | 1.0 | 11.0 | 0.00 | 0.00 | 0.00 | 51 | 1008.6 |
| 20260505230530 | 76 | 117 | 2.0 | 11.0 | 0.00 | 0.00 | 0.00 | 50 | 1008.5 |
| 20260505225505 | 77 | 64 | 2.0 | 6.0 | 0.00 | 0.00 | 0.00 | 49 | 1008.6 |
| 20260505224439 | 78 | 147 | 1.0 | 9.0 | 0.00 | 0.00 | 0.00 | 48 | 1008.6 |
| 20260505223501 | 79 | 326 | 2.0 | 11.0 | 0.00 | 0.00 | 0.00 | 47 | 1008.8 |
| 20260505222501 | 79 | 298 | 1.0 | 11.0 | 0.00 | 0.00 | 0.00 | 46 | 1008.6 |
| 20260505221513 | 80 | 66 | 2.0 | 10.0 | 0.00 | 0.00 | 0.00 | 47 | 1008.6 |
| 20260505220503 | 80 | 101 | 1.0 | 12.0 | 0.00 | 0.00 | 0.00 | 47 | 1008.6 |
| 20260505214313 | 80 | 80 | 2.0 | 10.0 | 0.00 | 0.00 | 0.00 | 46 | 1008.6 |
| 20260505212200 | 80 | 344 | 2.0 | 11.0 | 0.00 | 0.00 | 0.00 | 46 | 1008.7 |
| 20260505211214 | 79 | 166 | 2.0 | 11.0 | 0.00 | 0.00 | 0.00 | 46 | 1008.8 |
| 20260505210201 | 81 | 260 | 2.0 | 8.0 | 0.00 | 0.00 | 0.00 | 45 | 1008.8 |
| 20260505205133 | 81 | 121 | 2.0 | 13.0 | 0.00 | 0.00 | 0.00 | 45 | 1008.8 |
| 20260505204059 | 81 | 101 | 2.0 | 13.0 | 0.00 | 0.00 | 0.00 | 43 | 1008.6 |
| 20260505203050 | 82 | 101 | 2.0 | 10.0 | 0.00 | 0.00 | 0.00 | 45 | 1008.6 |
| 20260505202101 | 82 | 82 | 2.0 | 8.0 | 0.00 | 0.00 | 0.00 | 45 | 1008.8 |
| 20260505201053 | 81 | 359 | 1.0 | 9.0 | 0.00 | 0.00 | 0.00 | 44 | 1009.0 |
| 20260505194947 | 81 | 120 | 2.0 | 11.0 | 0.00 | 0.00 | 0.00 | 43 | 1009.1 |
| 20260505194007 | 81 | 175 | 2.0 | 11.0 | 0.00 | 0.00 | 0.00 | 45 | 1009.4 |
| 20260505192958 | 81 | 87 | 2.0 | 11.0 | 0.00 | 0.00 | 0.00 | 44 | 1009.4 |
| 20260505191943 | 81 | 148 | 2.0 | 10.0 | 0.00 | 0.00 | 0.00 | 48 | 1009.6 |
| 20260505190942 | 80 | 170 | 2.0 | 11.0 | 0.00 | 0.00 | 0.00 | 45 | 1009.8 |
| 20260505185927 | 81 | 75 | 2.0 | 11.0 | 0.00 | 0.00 | 0.00 | 43 | 1009.8 |
| 20260505184919 | 81 | 62 | 1.0 | 15.0 | 0.00 | 0.00 | 0.00 | 45 | 1010.1 |
| 20260505183936 | 81 | 91 | 2.0 | 15.0 | 0.00 | 0.00 | 0.00 | 43 | 1010.2 |
| 20260505182950 | 81 | 78 | 2.0 | 10.0 | 0.00 | 0.00 | 0.00 | 46 | 1010.2 |
| 20260505181925 | 81 | 78 | 1.0 | 9.0 | 0.00 | 0.00 | 0.00 | 47 | 1010.3 |
| 20260505180927 | 80 | 91 | 1.0 | 9.0 | 0.00 | 0.00 | 0.00 | 47 | 1010.5 |
| 20260505175945 | 80 | 129 | 2.0 | 7.0 | 0.00 | 0.00 | 0.00 | 46 | 1010.5 |
| 20260505175005 | 80 | 107 | 2.0 | 10.0 | 0.00 | 0.00 | 0.00 | 45 | 1010.4 |
| 20260505173934 | 80 | 131 | 2.0 | 10.0 | 0.00 | 0.00 | 0.00 | 45 | 1010.4 |
| 20260505171850 | 79 | 287 | 2.0 | 8.0 | 0.00 | 0.00 | 0.00 | 46 | 1010.6 |
| 20260505170835 | 79 | 120 | 2.0 | 8.0 | 0.00 | 0.00 | 0.00 | 46 | 1010.6 |
| 20260505165829 | 79 | 89 | 2.0 | 9.0 | 0.00 | 0.00 | 0.00 | 44 | 1010.7 |
| 20260505163802 | 79 | 160 | 3.0 | 10.0 | 0.00 | 0.00 | 0.00 | 46 | 1010.7 |
| 20260505161646 | 78 | 84 | 1.0 | 11.0 | 0.00 | 0.00 | 0.00 | 46 | 1011.0 |
| 20260505160622 | 77 | 153 | 2.0 | 11.0 | 0.00 | 0.00 | 0.00 | 48 | 1011.1 |
| 20260505152646 | 75 | 101 | 2.0 | 11.0 | 0.00 | 0.00 | 0.00 | 54 | 1011.3 |
| 20260505151653 | 74 | 139 | 2.0 | 8.0 | 0.00 | 0.00 | 0.00 | 55 | 1011.3 |
| 20260505150636 | 74 | 75 | 2.0 | 10.0 | 0.00 | 0.00 | 0.00 | 56 | 1011.4 |
| 20260505140618 | 70 | 191 | 1.0 | 8.0 | 0.00 | 0.00 | 0.00 | 62 | 1011.2 |
| 20260505120947 | 58 | 105 | 0.0 | 3.0 | 0.00 | 0.00 | 0.00 | 81 | 1011.3 |
| 20260505120000 | 58 | 41 | 0.0 | 1.0 | 0.00 | 0.00 | 0.00 | 82 | 1011.3 |
| 20260505115009 | 57 | 9 | 0.0 | 4.0 | 0.00 | 0.00 | 0.00 | 82 | 1011.4 |
| 20260505113937 | 56 | 48 | 0.0 | 1.0 | 0.00 | 0.00 | 0.00 | 83 | 1011.4 |
| 20260505112918 | 56 | 51 | 0.0 | 2.0 | 0.00 | 0.00 | 0.00 | 83 | 1011.4 |
| 20260505111846 | 55 | 83 | 0.0 | 2.0 | 0.00 | 0.00 | 0.00 | 84 | 1011.4 |
| 20260505110839 | 55 | 0 | 0.0 | 2.0 | 0.00 | 0.00 | 0.00 | 85 | 1010.9 |
| 20260505101657 | 54 | 65 | 0.0 | 2.0 | 0.00 | 0.00 | 0.00 | 84 | 1010.6 |
| 20260505100628 | 54 | 1 | 0.0 | 1.0 | 0.00 | 0.00 | 0.00 | 84 | 1010.4 |
| 20260505094529 | 54 | 89 | 0.0 | 1.0 | 0.00 | 0.00 | 0.00 | 83 | 1010.2 |
| 20260505093540 | 55 | 89 | 0.0 | 0.0 | 0.00 | 0.00 | 0.00 | 82 | 1010.2 |
| 20260505092534 | 55 | 17 | 0.0 | 0.0 | 0.00 | 0.00 | 0.00 | 82 | 1010.2 |
| 20260505091546 | 55 | 116 | 0.0 | 3.0 | 0.00 | 0.00 | 0.00 | 81 | 1010.2 |
| 20260505090542 | 55 | 73 | 0.0 | 3.0 | 0.00 | 0.00 | 0.00 | 82 | 1010.2 |
| 20260505085547 | 56 | 40 | 0.0 | 2.0 | 0.00 | 0.00 | 0.00 | 81 | 1010.2 |
| 20260505084520 | 56 | 74 | 0.0 | 0.0 | 0.00 | 0.00 | 0.00 | 80 | 1010.2 |
| 20260505083501 | 57 | 51 | 0.0 | 0.0 | 0.00 | 0.00 | 0.00 | 79 | 1010.2 |
| 20260505081350 | 57 | 359 | 0.0 | 3.0 | 0.00 | 0.00 | 0.00 | 78 | 1009.9 |
| 20260505080413 | 57 | 178 | 0.0 | 2.0 | 0.00 | 0.00 | 0.00 | 78 | 1009.9 |
| 20260505074300 | 58 | 44 | 0.0 | 2.0 | 0.00 | 0.00 | 0.00 | 76 | 1009.8 |
| 20260505073308 | 59 | 83 | 0.0 | 2.0 | 0.00 | 0.00 | 0.00 | 75 | 1009.8 |
| 20260505072331 | 59 | 329 | 0.0 | 2.0 | 0.00 | 0.00 | 0.00 | 75 | 1009.7 |
| 20260505071257 | 60 | 63 | 0.0 | 3.0 | 0.00 | 0.00 | 0.00 | 74 | 1009.7 |
| 20260505064037 | 61 | 74 | 1.0 | 4.0 | 0.00 | 0.00 | 0.00 | 73 | 1009.6 |
| 20260505063014 | 61 | 159 | 1.0 | 4.0 | 0.00 | 0.00 | 0.00 | 72 | 1009.6 |
| 20260505061942 | 61 | 66 | 1.0 | 3.0 | 0.00 | 0.00 | 0.00 | 71 | 1009.7 |
| 20260505060910 | 61 | 51 | 1.0 | 4.0 | 0.00 | 0.00 | 0.00 | 71 | 1009.7 |
| 20260505055846 | 62 | 162 | 1.0 | 11.0 | 0.00 | 0.00 | 0.00 | 70 | 1009.7 |
| 20260505054859 | 62 | 67 | 1.0 | 11.0 | 0.00 | 0.00 | 0.00 | 70 | 1009.7 |
| 20260505053906 | 62 | 311 | 1.0 | 8.0 | 0.00 | 0.00 | 0.00 | 70 | 1009.8 |
| 20260505051819 | 63 | 95 | 1.0 | 7.0 | 0.00 | 0.00 | 0.00 | 69 | 1009.9 |
| 20260505050814 | 63 | 130 | 0.0 | 9.0 | 0.00 | 0.00 | 0.00 | 69 | 1009.8 |
| 20260505041634 | 64 | 309 | 2.0 | 9.0 | 0.00 | 0.00 | 0.00 | 67 | 1009.7 |
| 20260505040656 | 64 | 23 | 1.0 | 9.0 | 0.00 | 0.00 | 0.00 | 67 | 1009.8 |
| 20260505035655 | 65 | 105 | 1.0 | 5.0 | 0.00 | 0.00 | 0.00 | 66 | 1009.7 |
| 20260505034714 | 65 | 74 | 2.0 | 8.0 | 0.00 | 0.00 | 0.00 | 66 | 1009.7 |
| 20260505033719 | 65 | 36 | 2.0 | 9.0 | 0.00 | 0.00 | 0.00 | 66 | 1009.7 |
| 20260505032646 | 66 | 63 | 1.0 | 9.0 | 0.00 | 0.00 | 0.00 | 65 | 1009.7 |
| 20260505031702 | 66 | 59 | 1.0 | 6.0 | 0.00 | 0.00 | 0.00 | 65 | 1009.7 |
| 20260505030702 | 66 | 39 | 1.0 | 7.0 | 0.00 | 0.00 | 0.00 | 64 | 1009.7 |
| 20260505025647 | 67 | 11 | 1.0 | 7.0 | 0.00 | 0.00 | 0.00 | 62 | 1009.7 |
| 20260505024657 | 67 | 98 | 1.0 | 5.0 | 0.00 | 0.00 | 0.00 | 60 | 1009.7 |
| 20260505023711 | 68 | 75 | 1.0 | 11.0 | 0.00 | 0.00 | 0.00 | 58 | 1009.7 |
| 20260505022640 | 68 | 357 | 2.0 | 11.0 | 0.00 | 0.00 | 0.00 | 56 | 1009.5 |
| 20260505021657 | 68 | 162 | 1.0 | 9.0 | 0.00 | 0.00 | 0.00 | 53 | 1009.5 |
| 20260505020640 | 68 | 33 | 1.0 | 7.0 | 0.00 | 0.00 | 0.00 | 50 | 1009.3 |
| 20260505015651 | 68 | 236 | 0.0 | 7.0 | 0.00 | 0.00 | 0.00 | 51 | 1009.2 |
| 20260505013513 | 68 | 1 | 0.0 | 3.0 | 0.00 | 0.00 | 0.00 | 51 | 1009.2 |
| 20260505012441 | 68 | 68 | 0.0 | 3.0 | 0.00 | 0.00 | 0.00 | 50 | 1009.0 |
| 20260505011422 | 68 | 82 | 0.0 | 3.0 | 0.00 | 0.00 | 0.00 | 50 | 1009.0 |
| 20260505010410 | 69 | 23 | 0.0 | 2.0 | 0.00 | 0.00 | 0.00 | 48 | 1008.9 |
| 20260505004252 | 70 | 82 | 0.0 | 2.0 | 0.00 | 0.00 | 0.00 | 46 | 1008.7 |
| 20260505003223 | 71 | 79 | 0.0 | 1.0 | 0.00 | 0.00 | 0.00 | 44 | 1008.7 |